Content
SEND FEEDBACK

Daily
Averages
Monthly
Summary
Canada

NIAGARA FALLS, ONTARIO


Home > North America > Canada > Ontario
Elevation: 324 feet     Latitude: 43 10N     Longitude: 079 10W

WEATHER
 
SELECT A DAY
Number of Records: 112,796;   Date Range: 1/1/95 - 9/17/14
 
SHARE

PRINT THIS DATA

[ ← Previous Day ]
WEATHER ALMANAC - JANUARY 31, 2013
[ Next Day → ]
[ °C ]   °F
Weather ElementAverageHighLow
Temperature26 °F28.4 °F (8:00 am)21.2 °F (8:00 pm)
Dewpoint15.2 °F19.4 °F (10:00 am)10.4 °F (2:00 pm)
Humidity64.5 %86 % (8:00 pm)47 % (2:00 pm)
Barometer29.58 in29.71 in (8:00 pm)29.36 in (8:00 am)
Wind Speed23.8 mph32.2 mph (2:00 pm)
Wind Gust51.8 mph (10:00 am)
Weather ElementAverage
Visibility11.5 mi
Wind DirectionWSW (259 °)

Weather ElementTotal
Precipitation---
Heating Degree Days40.2 (Base 65)
Averaged from 20 records on January 31, 2013
WEATHER CONDITIONS BREAKOUT
WIND DIRECTION BREAKOUT
WEATHER BY HOUR - JANUARY 31, 2013
[ °C ]   °F
Local TimeTemperatureDewpointHumidityBarometerVisibilityWind DirectionWind SpeedGust SpeedPrecipitationEventsConditions
8:00 AM28.4 °F15.8 °F59 %29.36 in10.0 miWest (260°)29.9 mph38.0 mphSnowLight Snow Showers
9:00 AM28.4 °F17.6 °F64 %29.41 in5.0 miWest (260°)28.8 mph41.4 mphSnowLight Snow Showers
10:00 AM26.6 °F19.4 °F74 %29.45 in8.0 miWest (260°)20.7 mph51.8 mphSnowLight Snow Showers
10:36 AM28.4 °F14.0 °F55 %29.47 in12.0 miWest (260°)27.6 mph44.9 mphMostly Cloudy
10:51 AM26.6 °F15.8 °F64 %29.48 in6.0 miWSW (250°)31.1 mph46.0 mphSnowLight Snow Showers
11:00 AM26.6 °F17.6 °F69 %29.48 in10.0 miWest (260°)24.2 mph40.3 mphSnowLight Snow Showers
12:00 PM28.4 °F19.4 °F69 %29.49 in15.0 miWSW (250°)23.0 mph38.0 mphSnowLight Snow Showers
1:00 PM28.4 °F15.8 °F59 %29.50 in12.0 miWSW (250°)27.6 mph39.1 mphSnowLight Snow Showers
2:00 PM28.4 °F10.4 °F47 %29.53 in15.0 miWSW (250°)32.2 mph43.7 mphSnowLight Snow Showers
3:00 PM26.6 °F10.4 °F51 %29.56 in15.0 miWest (270°)29.9 mph43.7 mphSnowLight Snow Showers
4:00 PM28.4 °F12.2 °F51 %29.59 in15.0 miWest (280°)24.2 mph34.5 mphSnowLight Snow Showers
5:00 PM26.6 °F12.2 °F55 %29.62 in15.0 miWest (270°)24.2 mph33.4 mphSnowLight Snow Showers
6:00 PM24.8 °F14.0 °F64 %29.65 in15.0 miWest (260°)16.1 mph26.5 mphMostly Cloudy
7:00 PM24.8 °F14.0 °F64 %29.69 in15.0 miWest (260°)16.1 mph26.5 mphMostly Cloudy
7:13 PM24.8 °F15.8 °F69 %29.69 in12.0 miWSW (250°)18.4 mph29.9 mphSnowLight Snow Showers
7:34 PM23.0 °F17.6 °F80 %29.70 in2.0 miWest (260°)19.6 mph27.6 mphSnowLight Snow Showers
8:00 PM21.2 °F17.6 °F86 %29.71 in2.0 miWSW (250°)24.2 mph33.4 mphSnowLight Snow Showers
8:14 PM23.0 °F15.8 °F74 %29.71 in15.0 miWest (260°)18.4 mph29.9 mphSnowLight Snow Showers
8:31 PM23.0 °F14.0 °F68 %29.71 in15.0 miWest (260°)17.3 mph25.3 mphScattered Clouds
9:00 PM23.0 °F14.0 °F68 %29.71 in15.0 miWest (260°)23.0 mph28.8 mphOvercast
Hourly data recorded from CYSN, located miles away from Niagara Falls, Ontario







STORIES FROM OUR PARTNERS